Silverthorne, CO

3:43 AM MDT on September 25, 2016 (GMT -0600)
Kremmling

Weather History for K20V - July, 2014

Change the Weather History Date:

Monday, July 21, 2014

  Actual Average Record
Temperature  
Mean Temperature 66 °F -  
Max Temperature 89 °F - 96 °F (2005)
Min Temperature 42 °F - 41 °F (2013)
Degree Days  
Heating Degree Days 0    
Month to date heating degree days  
Cooling Degree Days 0    
Month to date cooling degree days  
Growing Degree Days 16 (Base 50)    
Moisture  
Dew Point 36 °F    
Average Humidity 47    
Maximum Humidity 93    
Minimum Humidity 8    
Precipitation  
Precipitation 0.00 in - 0.11 in (2016)
Sea Level Pressure  
Sea Level Pressure 30.36 in    
Wind  
Wind Speed 2 mph (WSW)    
Max Wind Speed 18 mph    
Max Gust Speed 25 mph    
Visibility 10 miles    
Events      
T = Trace of Precipitation, MM = Missing Value Source: NWS Daily Summary

Daily Weather History Graph

Daily Weather History Graph

Search for Another Location

Airport or City:

Trip Planner

Search our weather history database for the weather conditions in past years. The results will help you decide how hot, cold, wet, or windy it might be!

Date:

Astronomy

Jul. 21, 2014 Rise Set
Actual Time 5:54 AM MDT 8:29 PM MDT
Civil Twilight 5:22 AM MDT 9:00 PM MDT
Nautical Twilight 4:43 AM MDT 9:39 PM MDT
Astronomical Twilight 3:59 AM MDT 10:23 PM MDT
Moon 1:46 AM MDT (7/21) 4:14 PM MDT (7/21)
Length of Visible Light 15h 37m
Length of Day
14h 35m
Waning Crescent, 24% of the Moon is Illuminated
Jul 21
Waning Crescent
Jul 26
New
Aug 3
First Quarter
Aug 10
Full
Aug 17
Last Quarter

Hourly Weather History & Observations

Time (MDT) Temp. Dew Point Humidity Pressure Visibility Wind Dir Wind Speed Gust Speed Precip Events Conditions
12:16 AM 51.8 °F 46.4 °F 82% 30.36 in 10.0 mi Calm Calm - N/A   Clear
12:37 AM 50.0 °F 44.6 °F 82% 30.36 in 10.0 mi Calm Calm - N/A   Clear
12:57 AM 50.0 °F 44.6 °F 82% 30.36 in 10.0 mi Calm Calm - N/A   Clear
1:17 AM 50.0 °F 44.6 °F 82% 30.36 in 10.0 mi Calm Calm - N/A   Clear
1:36 AM 50.0 °F 44.6 °F 82% 30.36 in 10.0 mi Calm Calm - N/A   Clear
1:57 AM 50.0 °F 44.6 °F 82% 30.36 in 10.0 mi Calm Calm - N/A   Clear
2:16 AM 50.0 °F 44.6 °F 82% 30.36 in 10.0 mi Calm Calm - N/A   Clear
2:36 AM 50.0 °F 42.8 °F 76% 30.36 in 10.0 mi Calm Calm - N/A   Clear
2:57 AM 50.0 °F 44.6 °F 82% 30.36 in 10.0 mi Calm Calm - N/A   Clear
3:17 AM 46.4 °F 42.8 °F 87% 30.36 in 10.0 mi Calm Calm - N/A   Clear
3:37 AM 46.4 °F 42.8 °F 87% 30.36 in 10.0 mi Calm Calm - N/A   Clear
3:57 AM 44.6 °F 41.0 °F 87% 30.36 in 10.0 mi Calm Calm - N/A   Clear
4:17 AM 44.6 °F 41.0 °F 87% 30.37 in 10.0 mi Calm Calm - N/A   Clear
4:37 AM 46.4 °F 42.8 °F 87% 30.37 in 10.0 mi Calm Calm - N/A   Clear
4:57 AM 44.6 °F 41.0 °F 87% 30.38 in 10.0 mi Calm Calm - N/A   Clear
5:17 AM 44.6 °F 42.8 °F 93% 30.38 in 0.8 mi Calm Calm - N/A   Mostly Cloudy
5:37 AM 42.8 °F 41.0 °F 93% 30.39 in 2.5 mi Calm Calm - N/A   Scattered Clouds
5:57 AM 42.8 °F 41.0 °F 93% 30.39 in 4.0 mi Calm Calm - N/A   Scattered Clouds
6:17 AM 42.8 °F 41.0 °F 93% 30.39 in 10.0 mi Calm Calm - N/A   Clear
6:37 AM 42.8 °F 39.2 °F 87% 30.40 in 10.0 mi Calm Calm - N/A   Clear
6:57 AM 44.6 °F 41.0 °F 87% 30.40 in 10.0 mi Calm Calm - N/A   Clear
7:37 AM 50.0 °F 44.6 °F 82% 30.41 in 10.0 mi Calm Calm - N/A   Clear
7:57 AM 50.0 °F 42.8 °F 76% 30.41 in 10.0 mi Calm Calm - N/A   Clear
8:17 AM 51.8 °F 44.6 °F 76% 30.41 in 10.0 mi Calm Calm - N/A   Clear
8:36 AM 53.6 °F 44.6 °F 72% 30.41 in 10.0 mi Calm Calm - N/A   Clear
8:57 AM 55.4 °F 44.6 °F 67% 30.41 in 10.0 mi Calm Calm - N/A   Clear
9:17 AM 59.0 °F 44.6 °F 59% 30.41 in 10.0 mi Calm Calm - N/A   Clear
9:37 AM 59.0 °F 44.6 °F 59% 30.40 in 10.0 mi Calm Calm - N/A   Clear
9:56 AM 60.8 °F 44.6 °F 55% 30.40 in 10.0 mi Calm Calm - N/A   Clear
10:16 AM 62.6 °F 46.4 °F 55% 30.39 in 10.0 mi Calm Calm - N/A   Clear
10:36 AM 64.4 °F 46.4 °F 52% 30.39 in 10.0 mi Calm Calm - N/A   Clear
10:55 AM 66.2 °F 44.6 °F 46% 30.39 in 10.0 mi Calm Calm - N/A   Clear
11:17 AM 69.8 °F 44.6 °F 40% 30.39 in 10.0 mi Calm Calm - N/A   Clear
11:37 AM 71.6 °F 44.6 °F 38% 30.38 in 10.0 mi Calm Calm - N/A   Clear
11:55 AM 73.4 °F 44.6 °F 36% 30.38 in 10.0 mi WNW 3.5 mph - N/A   Clear
12:16 PM 77.0 °F 41.0 °F 28% 30.37 in 10.0 mi SW 4.6 mph - N/A   Clear
12:35 PM 78.8 °F 37.4 °F 23% 30.36 in 10.0 mi West 4.6 mph - N/A   Clear
12:57 PM 82.4 °F 33.8 °F 17% 30.36 in 10.0 mi WSW 13.8 mph 18.4 mph N/A   Clear
1:17 PM 82.4 °F 30.2 °F 15% 30.35 in 10.0 mi West 16.1 mph 20.7 mph N/A   Clear
1:36 PM 82.4 °F 30.2 °F 15% 30.35 in 10.0 mi WSW 13.8 mph 21.9 mph N/A   Clear
1:57 PM 84.2 °F 28.4 °F 13% 30.35 in 10.0 mi SW 15.0 mph 19.6 mph N/A   Clear
2:17 PM 86.0 °F 30.2 °F 13% 30.35 in 10.0 mi WSW 16.1 mph 24.2 mph N/A   Clear
2:37 PM 82.4 °F 26.6 °F 13% 30.35 in 10.0 mi West 9.2 mph - N/A   Clear
2:57 PM 86.0 °F 28.4 °F 12% 30.34 in 10.0 mi WSW 16.1 mph 23.0 mph N/A   Clear
3:17 PM 86.0 °F 23.0 °F 10% 30.34 in 10.0 mi West 9.2 mph - N/A   Clear
3:36 PM 87.8 °F 23.0 °F 9% 30.33 in 10.0 mi WSW 15.0 mph 25.3 mph N/A   Clear
3:57 PM 87.8 °F 19.4 °F 8% 30.32 in 10.0 mi WSW 18.4 mph 24.2 mph N/A   Clear
4:17 PM 89.6 °F 21.2 °F 8% 30.32 in 10.0 mi SW 15.0 mph 19.6 mph N/A   Clear
4:37 PM 89.6 °F 23.0 °F 9% 30.32 in 10.0 mi WSW 12.7 mph 21.9 mph N/A   Clear
4:57 PM 89.6 °F 21.2 °F 8% 30.32 in 10.0 mi SW 12.7 mph 24.2 mph N/A   Clear
5:17 PM 89.6 °F 23.0 °F 9% 30.32 in 10.0 mi WSW 13.8 mph - N/A   Clear
5:37 PM 87.8 °F 19.4 °F 8% 30.31 in 10.0 mi WSW 6.9 mph - N/A   Clear
5:57 PM 84.2 °F 23.0 °F 11% 30.31 in 10.0 mi SSW 9.2 mph - N/A   Clear
6:17 PM 87.8 °F 23.0 °F 9% 30.31 in 10.0 mi SW 9.2 mph - N/A   Clear
6:37 PM 87.8 °F 23.0 °F 9% 30.31 in 10.0 mi West 5.8 mph - N/A   Clear
6:57 PM 80.6 °F 28.4 °F 15% 30.31 in 10.0 mi West 6.9 mph - N/A   Scattered Clouds
7:17 PM 82.4 °F 24.8 °F 12% 30.32 in 10.0 mi Calm Calm - N/A   Clear
7:37 PM 78.8 °F 28.4 °F 16% 30.32 in 10.0 mi Calm Calm - N/A   Clear
7:57 PM 77.0 °F 32.0 °F 19% 30.32 in 10.0 mi NW 3.5 mph - N/A   Clear
8:37 PM 73.4 °F 28.4 °F 19% 30.35 in 10.0 mi NW 6.9 mph - N/A   Scattered Clouds
8:56 PM 73.4 °F 28.4 °F 19% 30.35 in 10.0 mi NNW 8.1 mph - N/A   Clear
9:17 PM 71.6 °F 30.2 °F 22% 30.36 in 10.0 mi South 3.5 mph - N/A   Clear
9:36 PM 69.8 °F 32.0 °F 25% 30.36 in 10.0 mi West 3.5 mph - N/A   Clear
9:56 PM 66.2 °F 32.0 °F 28% 30.37 in 10.0 mi Calm Calm - N/A   Clear
10:17 PM 60.8 °F 33.8 °F 36% 30.38 in 10.0 mi Calm Calm - N/A   Clear
10:37 PM 59.0 °F 35.6 °F 42% 30.39 in 10.0 mi Calm Calm - N/A   Clear
10:57 PM 59.0 °F 35.6 °F 42% 30.40 in 10.0 mi Calm Calm - N/A   Clear
11:17 PM 57.2 °F 35.6 °F 44% 30.40 in 10.0 mi Calm Calm - N/A   Clear
11:37 PM 55.4 °F 37.4 °F 51% 30.41 in 10.0 mi Calm Calm - N/A   Clear
11:57 PM 55.4 °F 37.4 °F 51% 30.41 in 10.0 mi Calm Calm - N/A   Clear